User: anonymous   Login
Location: Kaiser
(34.0939°N, 117.4889°W)
Time: 02:45:42
(UTC+00:00)
Language:

Meteor 1-24 Rocket - Orbit

View from above orbital plane
View from above orbital plane
View from above satellite
View from above satellite

Ground track
Ground track

The orbit data is extracted from the following two-line orbital elements,

1 08800U 76032B   21015.48158414  .00000223  00000-0  11345-3 0  9992
2 08800  81.2503  24.5108 0096397  81.5458 279.6625 14.10156067302364
Epoch (UTC): 15 January 2021 11:33:28
Eccentricity: 0.0096397
inclination: 81.2503°
perigee height: 789 km
apogee height: 928 km
right ascension of ascending node: 24.5108°
argument of perigee: 81.5458°
revolutions per day: 14.10156067
mean anomaly at epoch: 279.6625°
orbit number at epoch: 30236

The dashed part of the orbit path shows where the satellite is in the earth's shadow,  

DLR